Location: *
(38.4303°S, 157.0822°W)
Time: 14:57:57
(UTC+00:00)

YAOGAN 11 - Pass Details

Date: 21 May 2024
Orbit: 606 x 658 km, 98.4° (Epoch: 23 June)

Event Time Altitude Azimuth Distance (km) Brightness Sun altitude
Rises 16:09:13 0° 167° (SSE) 3,019 7.6 -15.5°
Reaches altitude 10° 16:11:27 10° 167° (SSE) 2,103 6.8 -15.1°
Maximum altitude 16:16:04 89° 74° (ENE) 674 4.2 -14.2°
Drops below altitude 10° 16:20:37 10° 346° (NNW) 2,077 6.8 -13.3°
Sets 16:22:49 0° 346° (NNW) 2,978 7.6 -12.9°
